Regional Weather Roundup
Issued by NWS

Home | Current Version | Previous Version | Graphics & Text | Print | Product List | Glossary On
Versions: 1 2 3 4 5 6 7 8 9 10 11 12 13 14 15 16 17 18 19 20 21 22 23 24 25 26 27 28 29 30 31 32 33 34 35 36 37 38 39 40 41 42 43 44 45 46 47 48 49 50
000
ASUS43 KFSD 041210
RWRSD

WEATHER ROUNDUP FOR SOUTH DAKOTA
NATIONAL WEATHER SERVICE SIOUX FALLS SD
700 AM CDT FRI SEP 04 2015

NOTE: "FAIR" INDICATES FEW OR NO CLOUDS BELOW 12,000 FEET WITH NO
SIGNIFICANT WEATHER AND/OR OBSTRUCTIONS TO VISIBILITY.


SDZ001>005-009-010-012>017-041300-
NORTHWEST AND NORTH CENTRAL SOUTH DAKOTA

CITY           SKY/WX    TMP DP  RH WIND       PRES   REMARKS
BUFFALO          N/A     63  60  90 NE9       29.73F
MOBRIDGE       CLOUDY    72  72 100 SE8       29.71R
$$

SDZ012>016-024>037-041>051-057-063-072>074-041300-
SOUTHWEST AND SOUTH CENTRAL SOUTH DAKOTA

CITY           SKY/WX    TMP DP  RH WIND       PRES   REMARKS
RAPID CTY ARPT PTCLDY    66  56  70 CALM      29.79R
PIERRE         LGT RAIN  68  65  90 N7        29.70F
CUSTER         PTCLDY    60  42  51 NW6       29.95S
PHILIP         CLOUDY    69  60  73 CALM      29.75R
PINE RIDGE     CLEAR     61  54  77 SW6       29.83R
WINNER         FAIR      70  63  78 S8        29.76R
$$

SDZ004>011-016>023-039-040-041300-
NORTHEAST SOUTH DAKOTA

CITY           SKY/WX    TMP DP  RH WIND       PRES   REMARKS
ABERDEEN       CLOUDY    72  69  90 SE5       29.73S
WATERTOWN      PTCLDY    72  68  87 S10       29.79R
BROOKINGS      MOCLDY   N/A N/A N/A SE13      29.83R
SISSETON         N/A     73  72  96 S8        29.76S
$$

SDZ017-020-022-023-036>040-048>070-041300-
SOUTHEAST SOUTH DAKOTA

CITY           SKY/WX    TMP DP  RH WIND       PRES   REMARKS
SIOUX FALLS    MOCLDY    74  66  76 S12       29.83R
HURON          CLOUDY    73  67  81 S5        29.75R THUNDER
CHAMBERLAIN    DRIZZLE   71  65  81 NE6       29.70F
MITCHELL       CLOUDY    74  67  78 SE12      29.75R
YANKTON        MOCLDY    73  64  73 S14       29.80S
$$

ABBREVIATIONS USED IN REMARKS
   TC - TEMPERATURE IN CELSIUS
  WCI - WIND CHILL INDEX
   HX - HEAT INDEX
  VSB - VISIBILITY



USA.gov is the U.S. government's official web portal to all federal, state and local government web resources and services.